Weather History for KGUC - November, 2012

Change the Weather History Date:

Saturday, November 24, 2012

  Actual Average Record
Temperature  
Mean Temperature 28 °F -  
Max Temperature 51 °F 34 °F 51 °F (2012)
Min Temperature 6 °F 10 °F -7 °F (1999)
Degree Days  
Heating Degree Days 36    
Moisture  
Dew Point 8 °F    
Average Humidity 51    
Maximum Humidity 92    
Minimum Humidity 19    
Precipitation  
Precipitation 0.00 in - - ()
Sea Level Pressure  
Sea Level Pressure 30.37 in    
Wind  
Wind Speed 1 mph (WNW)    
Max Wind Speed 10 mph    
Max Gust Speed 16 mph    
Visibility 10 miles    
Events      
Averages and records for this station are not official NWS values.
T = Trace of Precipitation, MM = Missing Value Source: NWS Daily Summary

Daily Weather History Graph

Daily Weather History Graph

Search for Another Location

Airport or City:

Trip Planner

Search our weather history database for the weather conditions in past years. The results will help you decide how hot, cold, wet, or windy it might be!

Date:

Astronomy

Nov. 24, 2012 Rise Set
Actual Time 6:59 AM MST 4:49 PM MST
Civil Twilight 6:30 AM MST 5:18 PM MST
Nautical Twilight 5:58 AM MST 5:50 PM MST
Astronomical Twilight 5:26 AM MST 6:22 PM MST
Moon 2:33 PM MST (11/24) 3:21 AM MST (11/24)
Length of Visible Light 10h 47m
Length of Day
9h 49m
Waxing Gibbous, 87% of the Moon is Illuminated
Nov 24
Waxing Gibbous
Nov 28
Full
Dec 6
Last Quarter
Dec 13
New
Dec 19
First Quarter

Hourly Weather History & Observations

Time (MST) Temp. Windchill Dew Point Humidity Pressure Visibility Wind Dir Wind Speed Gust Speed Precip Events Conditions
12:15 AM 17.6 °F - 8.6 °F 68% 30.51 in 10.0 mi Calm Calm - N/A   Clear
12:35 AM 19.4 °F - 8.6 °F 63% 30.51 in 10.0 mi Calm Calm - N/A   Clear
12:55 AM 17.6 °F - 8.6 °F 68% 30.51 in 10.0 mi Calm Calm - N/A   Clear
1:15 AM 15.8 °F - 6.8 °F 68% 30.50 in 10.0 mi Calm Calm - N/A   Clear
1:35 AM 17.6 °F 12.3 °F 10.4 °F 73% 30.51 in 10.0 mi NE 3.5 mph - N/A   Clear
1:55 AM 15.8 °F - 6.8 °F 68% 30.51 in 10.0 mi Calm Calm - N/A   Clear
2:15 AM 15.8 °F 10.2 °F 8.6 °F 73% 30.51 in 10.0 mi North 3.5 mph - N/A   Clear
2:35 AM 15.8 °F - 8.6 °F 73% 30.51 in 10.0 mi Calm Calm - N/A   Clear
2:55 AM 12.2 °F - 3.2 °F 67% 30.50 in 10.0 mi Calm Calm - N/A   Clear
3:15 AM 12.2 °F - 8.6 °F 85% 30.50 in 10.0 mi Calm Calm - N/A   Clear
3:35 AM 15.8 °F - 8.6 °F 73% 30.50 in 10.0 mi Calm Calm - N/A   Clear
3:55 AM 14.0 °F - 6.8 °F 73% 30.49 in 10.0 mi Calm Calm - N/A   Clear
4:15 AM 12.2 °F - 5.0 °F 73% 30.49 in 10.0 mi Calm Calm - N/A   Clear
4:35 AM 10.4 °F - 3.2 °F 73% 30.49 in 10.0 mi Calm Calm - N/A   Clear
4:55 AM 10.4 °F - 5.0 °F 79% 30.49 in 10.0 mi Calm Calm - N/A   Clear
5:15 AM 12.2 °F - 6.8 °F 79% 30.49 in 10.0 mi Calm Calm - N/A   Clear
5:35 AM 8.6 °F - 1.4 °F 73% 30.49 in 10.0 mi Calm Calm - N/A   Clear
5:55 AM 8.6 °F - 3.2 °F 79% 30.49 in 10.0 mi Calm Calm - N/A   Clear
6:15 AM 8.6 °F - 3.2 °F 79% 30.49 in 10.0 mi Calm Calm - N/A   Clear
6:35 AM 10.4 °F - 6.8 °F 85% 30.49 in 10.0 mi Calm Calm - N/A   Clear
6:55 AM 10.4 °F - 1.4 °F 67% 30.50 in 10.0 mi Calm Calm - N/A   Clear
7:15 AM 8.6 °F - 5.0 °F 85% 30.49 in 10.0 mi Calm Calm - N/A   Clear
7:35 AM 6.8 °F - -0.4 °F 72% 30.49 in 10.0 mi Calm Calm - N/A   Clear
7:55 AM 12.2 °F - 10.4 °F 92% 30.50 in 10.0 mi Calm Calm - N/A   Clear
8:15 AM 14.0 °F - 5.0 °F 67% 30.50 in 10.0 mi Calm Calm - N/A   Clear
8:35 AM 15.8 °F - 10.4 °F 79% 30.50 in 10.0 mi Calm Calm - N/A   Clear
8:55 AM 17.6 °F - 8.6 °F 68% 30.49 in 10.0 mi Calm Calm - N/A   Clear
9:15 AM 21.2 °F - 10.4 °F 63% 30.49 in 10.0 mi Calm Calm - N/A   Clear
9:55 AM 24.8 °F - 10.4 °F 54% 30.48 in 10.0 mi Calm Calm - N/A   Clear
10:15 AM 26.6 °F - 12.2 °F 55% 30.47 in 10.0 mi Calm Calm - N/A   Clear
10:35 AM 28.4 °F - 12.2 °F 51% 30.46 in 10.0 mi Calm Calm - N/A   Clear
10:55 AM 30.2 °F - 12.2 °F 47% 30.44 in 10.0 mi Calm Calm - N/A   Clear
11:15 AM 33.8 °F - 14.0 °F 44% 30.42 in 10.0 mi Calm Calm - N/A   Clear
11:35 AM 35.6 °F - 15.8 °F 44% 30.39 in 10.0 mi Calm Calm - N/A   Clear
11:55 AM 37.4 °F 34.9 °F 12.2 °F 36% 30.37 in 10.0 mi West 3.5 mph - N/A   Clear
12:15 PM 39.2 °F - 12.2 °F 33% 30.36 in 10.0 mi Calm Calm - N/A   Clear
12:35 PM 39.2 °F 37.0 °F 14.0 °F 36% 30.34 in 10.0 mi WSW 3.5 mph - N/A   Clear
12:55 PM 42.8 °F 41.1 °F 12.2 °F 29% 30.33 in 10.0 mi South 3.5 mph - N/A   Clear
1:15 PM 42.8 °F 41.1 °F 12.2 °F 29% 30.31 in 10.0 mi WSW 3.5 mph - N/A   Clear
1:35 PM 44.6 °F - 12.2 °F 27% 30.30 in 10.0 mi Calm Calm - N/A   Clear
1:55 PM 44.6 °F - 12.2 °F 27% 30.29 in 10.0 mi Calm Calm - N/A   Clear
2:15 PM 46.4 °F - 12.2 °F 25% 30.28 in 10.0 mi Calm Calm - N/A   Clear
2:35 PM 48.2 °F - 12.2 °F 24% 30.27 in 10.0 mi Calm Calm - N/A   Clear
2:55 PM 48.2 °F - 12.2 °F 24% 30.26 in 10.0 mi Calm Calm - N/A   Clear
3:15 PM 50.0 °F - 12.2 °F 22% 30.25 in 10.0 mi East 3.5 mph - N/A   Clear
3:35 PM 51.8 °F - 12.2 °F 21% 30.25 in 10.0 mi Calm Calm - N/A   Clear
3:55 PM 51.8 °F - 12.2 °F 21% 30.24 in 10.0 mi SW 10.4 mph 16.1 mph N/A   Clear
4:15 PM 51.8 °F - 10.4 °F 19% 30.24 in 10.0 mi SW 9.2 mph - N/A   Clear
4:35 PM 50.0 °F - 10.4 °F 20% 30.24 in 10.0 mi WSW 10.4 mph - N/A   Clear
4:55 PM 48.2 °F - 8.6 °F 20% 30.24 in 10.0 mi WSW 9.2 mph - N/A   Clear
5:15 PM 44.6 °F 39.7 °F 6.8 °F 21% 30.24 in 10.0 mi WSW 9.2 mph - N/A   Clear
5:35 PM 42.8 °F 39.3 °F 6.8 °F 23% 30.24 in 10.0 mi West 5.8 mph - N/A   Clear
5:55 PM 39.2 °F 33.6 °F 6.8 °F 26% 30.24 in 10.0 mi NNW 8.1 mph - N/A   Clear
6:15 PM 37.4 °F 31.4 °F 6.8 °F 28% 30.24 in 10.0 mi NNW 8.1 mph - N/A   Clear
6:35 PM 35.6 °F 28.6 °F 6.8 °F 30% 30.24 in 10.0 mi NNW 9.2 mph - N/A   Clear
6:55 PM 33.8 °F 28.6 °F 6.8 °F 32% 30.24 in 10.0 mi North 5.8 mph - N/A   Clear
7:15 PM 32.0 °F - 8.6 °F 38% 30.25 in 10.0 mi Calm Calm - N/A   Clear
7:35 PM 30.2 °F - 6.8 °F 37% 30.24 in 10.0 mi Calm Calm - N/A   Clear
7:55 PM 30.2 °F - 6.8 °F 37% 30.25 in 10.0 mi Calm Calm - N/A   Clear
8:15 PM 30.2 °F - 6.8 °F 37% 30.25 in 10.0 mi Calm Calm - N/A   Clear
8:35 PM 30.2 °F - 6.8 °F 37% 30.25 in 10.0 mi Calm Calm - N/A   Clear
8:55 PM 28.4 °F - 8.6 °F 43% 30.25 in 10.0 mi Calm Calm - N/A   Clear
9:15 PM 24.8 °F - 3.2 °F 40% 30.25 in 10.0 mi Calm Calm - N/A   Clear
9:35 PM 23.0 °F - 8.6 °F 54% 30.25 in 10.0 mi Calm Calm - N/A   Clear
9:55 PM 23.0 °F - 6.8 °F 50% 30.25 in 10.0 mi Calm Calm - N/A   Clear
10:15 PM 23.0 °F - 6.8 °F 50% 30.26 in 10.0 mi North - - N/A   Clear
10:35 PM 19.4 °F - 3.2 °F 49% 30.26 in 10.0 mi Calm Calm - N/A   Clear
10:55 PM 21.2 °F 16.4 °F 12.2 °F 68% 30.26 in 10.0 mi North 3.5 mph - N/A   Clear
11:15 PM 19.4 °F - 5.0 °F 54% 30.25 in 10.0 mi Calm Calm - N/A   Clear
11:35 PM 19.4 °F - 6.8 °F 58% 30.25 in 10.0 mi Calm Calm - N/A   Clear
11:55 PM 19.4 °F - 6.8 °F 58% 30.25 in 10.0 mi Calm Calm - N/A   Clear